Location: Alafon
(8.4500°N, 4.2333°E)
Time: 15:47:34
(UTC+00:00)

Vanguard 1 Rocket - Pass Details

Date: 25 July 2021
Orbit: 650 x 4226 km, 34.3° (Epoch: 23 September)

Event Time Altitude Azimuth Distance (km) Brightness Sun altitude
Rises 05:00:06 0° 212° (SSW) 7,821 11.7 -8.7°
Reaches altitude 10° 05:07:02 10° 200° (SSW) 7,155 11.6 -7.1°
Maximum altitude 05:27:12 28° 149° (SSE) 5,933 11.7 -2.4°
Drops below altitude 10° 05:44:53 10° 98° (E) 6,454 13.0 1.7°
Sets 05:50:23 0° 87° (E) 7,003 13.7 3.0°
